Location: ActonStarParty
(42.4766°N, 71.4538°W)
Time: 03:58:02
(UTC-05:00)

ATLAS 5 CENTAUR R/B - Visible Passes

Search period start: 27 February 2017 00:00
Search period end: 09 March 2017 00:00
Orbit: 236 x 14673 km, 60.8° (Epoch: 07 August)

Date Brightness Start Highest point End Pass type
(mag) Time Alt. Az. Time Alt. Az. Time Alt. Az.
27 Feb 7.3 01:18:02 10° ESE 01:35:29 20° ENE 02:14:59 10° NNE visible
27 Feb 6.5 05:40:32 10° SW 06:02:43 80° NW 08:12:24 10° ENE visible
27 Feb 9.1 15:31:23 10° NW 16:52:15 36° WNW 17:56:56 10° WSW visible
28 Feb 6.4 03:55:33 10° S 04:12:50 69° ESE 05:52:10 10° NE visible
01 Mar 6.7 02:13:57 10° SE 02:31:29 38° E 03:38:27 10° NE visible
01 Mar 9.3 16:47:37 10° NNW 17:43:48 21° WNW 18:37:52 10° W visible
02 Mar 7.4 00:41:05 10° E 00:56:40 16° ENE 01:25:19 10° NE visible
02 Mar 6.4 04:58:44 10° SW 05:19:00 86° NW 07:22:00 10° ENE visible
03 Mar 6.4 03:14:16 10° S 03:31:09 61° E 05:02:27 10° NE visible
04 Mar 6.8 01:33:39 10° SE 01:51:17 31° ENE 02:49:51 10° NNE visible
04 Mar 9.2 16:00:32 10° NNW 17:05:05 25° WNW 18:04:37 10° W visible
05 Mar 7.6 00:07:31 10° ENE 00:17:40 11° NE 00:31:34 10° NE visible
05 Mar 6.3 04:16:32 10° SSW 04:35:17 87° ESE 06:30:39 10° NE visible
06 Mar 6.3 02:33:28 14° SSE 02:49:20 53° E 04:12:26 10° NE visible
06 Mar 9.5 17:24:36 10° NW 17:54:39 13° NW 18:25:36 10° WNW visible
07 Mar 6.9 00:53:22 10° ESE 01:10:54 26° ENE 02:00:30 10° NNE visible
07 Mar 6.5 05:20:14 10° WSW 05:44:52 74° NW 08:00:23 10° ENE visible
08 Mar 6.1 03:35:31 18° SSW 03:51:32 79° ESE 05:38:40 10° NE visible
